Vorticity
nan nan nan nan nan nan nan nan nan nan nan nan nan nan nan nan nan nan nan nan nan nan nan nan nan nan nan nan nan nan nan nan nan nan nan nan nan nan nan nan nan nan nan nan nan nan nan nan nan nan nan nan nan nan nan nan nan nan nan nan nan nan nan nan nan nan nan nan nan
nan 11 11 11 11 10 10 10 10 10 10 10 9 8 8 7 8 9 9 11 11 11 10 10 10 11 10 9 9 9 9 9 9 9 9 8 8 8 8 8 8 8 7 7 7 7 8 8 8 8 8 8 8 9 10 11 10 8 8 9 10 10 9 8 9 9 9 9 nan
nan 9 10 11 11 10 10 9 10 10 9 8 8 8 8 8 9 9 10 11 12 11 10 10 10 9 9 8 9 10 10 9 8 7 7 7 7 8 8 8 8 7 7 7 7 7 8 8 8 8 8 8 7 8 10 10 9 8 8 9 10 9 9 9 10 10 9 10 nan
nan 8 8 10 10 9 8 9 11 9 6 6 7 8 8 9 10 11 11 12 11 10 10 10 9 8 8 9 11 11 11 10 9 7 7 7 7 7 7 7 7 7 7 7 8 8 8 8 8 8 9 8 7 8 9 10 9 9 9 10 10 9 9 9 10 10 9 10 nan
nan 7 8 9 8 6 7 9 9 7 5 6 8 9 9 10 11 11 11 11 9 10 10 10 9 9 10 11 11 10 9 9 8 7 7 7 7 7 7 7 7 7 7 7 8 8 8 8 8 9 9 8 8 9 10 9 8 9 9 10 10 10 9 9 9 10 10 10 nan
nan 8 9 10 8 7 8 10 9 7 6 8 11 11 11 11 12 12 11 10 9 9 9 8 9 10 11 11 10 8 7 7 7 8 8 7 7 7 8 7 7 7 7 8 9 9 9 8 8 9 9 9 9 10 11 9 8 9 9 10 10 10 10 9 9 10 10 9 nan
nan 8 8 9 8 8 9 9 8 7 7 10 12 12 11 12 13 12 10 8 8 8 7 7 10 10 10 9 8 7 7 7 8 8 7 7 7 7 7 7 7 7 8 9 9 9 9 8 8 9 9 9 10 10 10 10 10 9 9 9 9 9 10 9 9 9 9 9 nan
nan 8 8 8 8 8 8 8 7 7 8 11 12 12 11 11 11 9 7 7 7 7 7 9 11 10 10 9 8 7 7 7 7 7 7 8 7 7 6 7 8 8 8 9 9 9 9 8 8 9 9 9 10 10 10 10 10 10 9 8 7 8 9 10 10 10 10 9 nan
nan 8 8 8 8 8 8 8 8 9 11 13 13 11 10 9 8 6 5 5 7 7 8 9 11 10 10 9 8 7 6 7 7 7 7 7 7 6 6 7 8 8 9 10 10 9 8 8 9 9 9 9 10 10 10 11 10 9 9 7 7 8 9 10 10 10 10 9 nan
nan 7 7 7 9 9 9 9 9 10 11 12 11 10 9 8 7 5 4 6 9 8 8 9 10 10 10 9 7 7 6 7 8 8 7 7 7 7 7 7 8 8 8 9 10 9 8 8 9 9 10 10 10 10 10 10 10 9 9 8 9 9 10 10 10 10 10 8 nan
nan 6 6 8 10 10 9 9 8 9 10 11 10 9 8 7 6 6 6 9 10 9 8 8 10 10 9 7 7 7 7 8 9 9 8 7 7 7 7 8 8 7 8 9 10 9 9 9 9 9 9 10 11 10 10 10 10 10 10 10 10 9 9 9 10 10 9 7 nan
nan 6 8 11 12 11 10 8 8 9 11 11 9 8 7 6 6 7 8 10 10 8 6 8 10 10 8 7 8 7 8 9 9 9 8 7 7 7 7 8 8 8 9 9 10 9 9 10 9 9 8 9 10 11 11 11 11 10 10 10 9 8 8 9 10 10 9 7 nan
nan 7 9 11 12 11 9 7 8 10 11 9 7 7 6 7 7 8 9 9 7 6 6 9 10 10 10 9 8 8 8 9 9 8 8 7 7 7 7 7 8 8 9 10 10 10 10 11 10 9 8 9 10 12 13 13 11 9 8 9 8 8 7 8 9 9 9 7 nan
nan 8 9 10 10 9 8 7 7 9 10 8 6 7 7 7 6 7 9 9 6 6 8 9 9 10 12 12 10 10 9 9 9 8 8 7 7 7 7 7 8 8 9 11 11 11 11 11 10 10 9 10 11 12 13 12 10 9 7 8 7 7 7 8 9 9 8 7 nan
nan 8 7 8 9 9 8 7 6 8 9 7 6 7 8 7 6 8 10 9 7 7 9 9 8 9 12 13 12 11 9 8 9 8 7 7 7 7 7 7 8 9 10 11 12 12 11 11 10 10 11 11 11 11 12 11 10 9 7 7 6 6 7 8 9 8 7 7 nan
nan 7 7 9 10 9 8 6 7 9 9 8 8 8 8 7 7 8 10 9 8 8 9 9 8 9 10 11 12 12 10 9 8 8 7 7 7 7 7 7 9 10 11 11 11 11 11 11 11 11 12 11 10 10 10 9 9 8 7 7 6 7 7 8 9 9 8 8 nan
nan 7 8 10 11 9 8 7 8 10 10 9 9 8 8 7 7 8 9 9 9 9 8 7 8 9 9 9 10 11 11 9 8 8 7 7 8 8 9 10 11 12 12 11 10 10 10 11 12 12 12 11 9 9 8 8 8 8 7 7 7 7 8 8 9 9 8 8 nan
nan 8 9 11 11 9 9 9 9 10 10 9 8 7 8 9 8 7 8 9 10 10 8 6 7 9 10 9 8 9 10 10 9 8 8 8 10 11 12 13 13 12 12 11 10 10 10 10 10 11 10 10 9 9 8 8 8 8 8 8 8 8 8 9 9 9 8 8 nan
nan 8 9 10 10 10 10 9 9 8 9 9 9 9 9 10 9 8 7 8 10 10 9 7 7 8 9 9 8 8 9 10 10 9 8 10 12 14 14 14 13 12 12 11 11 10 10 9 9 9 10 10 9 8 8 7 8 8 8 9 8 9 9 9 10 9 9 8 nan
nan 7 8 9 10 10 9 8 8 8 9 11 12 11 10 9 9 9 8 7 9 10 9 9 8 8 8 8 8 8 9 10 11 10 10 12 14 15 15 13 12 12 12 11 11 10 10 9 10 10 10 9 9 8 7 7 8 8 8 9 9 9 9 10 10 10 10 9 nan
nan 5 7 9 10 9 8 8 9 10 11 12 11 10 9 10 10 9 8 9 9 9 9 9 9 9 8 8 8 9 10 11 12 12 13 14 15 14 14 12 12 11 12 11 11 10 10 10 10 10 9 8 8 7 7 7 8 8 9 9 9 9 9 10 10 10 10 10 nan
nan 6 9 10 10 10 9 10 12 12 12 11 10 10 10 10 10 9 9 10 10 9 9 9 10 9 9 9 9 9 10 11 14 14 15 15 14 13 12 11 11 11 11 10 10 9 9 9 10 9 8 7 7 6 7 7 8 9 9 9 9 9 10 10 10 10 10 10 nan
nan 8 10 12 13 12 12 12 13 13 12 10 10 10 10 10 9 9 9 9 10 9 9 9 10 10 10 10 10 9 9 10 12 13 15 14 13 12 11 10 10 10 9 8 9 8 7 6 7 7 7 7 7 7 7 8 8 8 8 9 9 9 10 10 10 10 10 10 nan
nan 10 12 14 15 13 11 12 12 11 10 9 8 8 9 9 9 9 9 9 9 9 9 9 10 11 11 11 11 11 10 10 10 11 12 13 12 11 10 10 9 8 7 10 13 13 9 6 6 6 7 7 7 7 8 9 9 8 8 8 9 9 10 10 10 10 9 9 nan
nan 12 13 15 14 12 11 11 10 9 7 6 8 9 9 9 9 8 8 9 9 9 9 9 10 10 11 11 11 12 12 13 11 10 10 10 11 10 10 10 8 8 9 16 19 14 10 8 8 8 8 8 8 8 9 10 9 9 9 8 8 9 9 9 10 10 9 9 nan
nan 12 13 13 12 11 10 9 7 7 6 7 9 10 9 8 8 8 8 8 9 9 9 10 10 10 10 10 9 10 11 13 12 11 10 10 9 9 9 9 8 9 14 20 16 10 8 9 8 7 8 8 8 9 9 9 10 10 10 9 8 8 8 8 8 8 9 9 nan
nan 11 12 12 11 9 8 7 7 8 9 10 10 9 8 8 8 8 8 8 9 9 10 10 10 10 9 9 8 9 10 12 12 12 12 11 9 8 8 8 9 12 19 19 12 7 6 6 5 4 5 7 8 8 8 9 10 10 10 10 9 9 8 7 7 7 8 8 nan
nan 12 11 11 9 8 8 9 10 10 10 9 8 7 8 8 9 8 8 8 9 9 10 10 11 10 8 8 9 10 11 11 11 12 12 11 10 8 7 8 11 17 21 17 8 5 5 5 4 3 2 4 7 9 10 9 9 9 9 9 10 9 9 8 8 7 7 7 nan
nan 11 10 9 8 8 9 10 10 8 8 7 7 8 9 9 8 8 8 8 8 9 9 10 10 8 8 8 10 11 12 11 11 11 11 11 9 8 8 9 13 18 19 12 5 4 4 4 4 3 2 2 4 9 10 10 10 9 9 9 10 9 9 8 8 8 8 8 nan
nan 9 9 8 8 9 9 8 8 7 6 7 9 9 8 8 8 8 8 8 8 9 10 10 8 7 8 8 10 11 12 12 12 12 12 11 8 8 8 9 13 17 17 10 3 4 4 4 4 4 4 2 3 6 9 10 10 9 9 9 10 9 9 9 9 9 8 8 nan
nan 9 9 9 9 8 8 7 7 7 7 8 9 8 8 8 8 8 8 8 9 9 9 9 8 8 9 10 11 12 13 14 14 13 13 10 8 8 8 10 12 15 17 10 3 3 4 4 5 5 5 2 1 5 8 9 9 9 9 10 10 9 9 9 9 9 9 8 nan
nan 10 9 9 8 7 7 7 7 7 8 9 9 8 8 8 8 9 9 9 9 8 8 8 8 9 10 11 12 13 14 15 15 14 13 10 8 8 10 10 11 14 18 11 2 3 4 4 5 6 6 2 1 4 7 9 9 9 10 10 10 9 8 8 9 10 9 9 nan
nan 9 9 8 7 6 6 6 6 7 8 9 9 9 8 8 8 8 9 9 10 9 9 8 9 9 10 12 13 13 14 15 16 14 13 11 10 9 9 9 11 15 18 11 3 4 4 5 5 6 7 2 0 5 7 8 9 9 9 10 11 10 10 8 8 9 9 9 nan
nan 8 8 7 6 6 5 6 7 8 9 9 9 9 8 7 7 8 9 10 11 10 10 10 11 11 12 13 14 13 13 15 16 15 13 12 10 8 7 6 11 18 18 11 4 4 5 5 6 6 7 3 1 5 8 9 8 9 9 9 10 10 10 10 9 9 9 9 nan
nan 7 7 7 6 6 6 6 8 8 9 9 8 8 8 8 8 9 10 11 11 10 10 10 11 11 12 13 13 13 13 14 14 13 12 10 9 8 7 6 11 18 17 10 5 5 5 6 6 6 4 2 2 6 9 9 9 9 9 10 9 10 10 10 10 10 10 10 nan
nan 7 7 7 7 7 7 8 8 8 8 8 7 8 8 8 9 10 11 11 10 9 9 10 10 10 10 10 10 12 14 13 11 11 10 9 8 8 7 7 11 17 16 10 6 5 5 6 7 6 3 0 2 7 8 9 9 10 10 10 10 10 10 10 10 10 10 10 nan
nan 8 8 7 7 7 8 8 8 8 7 7 8 9 9 9 10 11 11 11 9 9 9 9 10 10 10 10 9 11 13 12 11 11 9 7 8 8 8 8 10 15 18 14 8 6 6 6 6 4 -1 -0 4 7 8 8 9 10 11 10 9 10 10 11 11 11 10 10 nan
nan 9 9 8 8 8 8 8 8 8 8 8 9 9 10 10 10 11 11 10 9 9 9 9 10 10 12 12 12 13 13 11 10 11 9 7 7 8 9 9 8 13 18 17 11 7 6 6 5 2 -5 -2 7 8 8 8 9 9 9 9 9 10 11 11 11 11 11 9 nan
nan 10 10 9 8 8 8 8 8 8 9 9 9 9 9 9 10 11 11 10 10 10 9 9 10 10 12 13 14 14 14 11 9 8 9 9 8 8 8 8 8 12 18 18 13 9 7 6 6 3 -5 -3 6 8 9 9 9 8 8 8 9 10 12 12 12 11 11 8 nan
nan 10 10 10 9 9 8 8 8 9 9 10 9 9 10 10 10 10 10 10 10 10 9 9 10 10 12 13 14 13 12 10 8 8 9 10 11 10 6 6 9 13 18 19 15 9 7 6 7 4 -6 -4 6 7 9 10 9 8 7 7 9 10 11 11 11 11 11 10 nan
nan nan nan nan nan nan nan nan nan nan nan nan nan nan nan nan nan nan nan nan nan nan nan nan nan nan nan nan nan nan nan nan nan nan nan nan nan nan nan nan nan nan nan nan nan nan nan nan nan nan nan nan nan nan nan nan nan nan nan nan nan nan nan nan nan nan nan nan nan
CAPE
nan nan nan nan nan nan nan nan nan nan nan nan nan nan nan nan nan nan nan nan nan nan nan nan nan nan nan nan nan nan nan nan nan nan nan nan nan nan nan nan nan nan nan nan nan nan nan nan nan nan nan nan nan nan nan nan nan nan nan nan nan nan nan nan nan nan nan nan nan
nan nan nan nan nan nan nan nan nan nan nan nan nan nan nan nan nan nan nan nan nan nan nan nan nan nan nan nan nan nan nan nan nan nan nan nan nan nan nan nan nan nan nan nan nan nan nan nan nan nan nan nan nan nan nan nan nan nan nan nan nan nan nan nan nan nan nan nan nan
nan nan nan nan nan nan nan nan nan nan nan nan nan nan nan nan nan nan nan nan nan nan nan nan nan nan nan nan nan nan nan nan nan nan nan nan nan nan nan nan nan nan nan nan nan nan nan nan nan nan nan nan nan nan nan nan nan nan nan nan nan nan nan nan nan nan nan nan nan
nan nan nan nan nan nan nan nan nan nan nan nan nan nan nan nan nan nan nan nan nan nan nan nan nan nan nan nan nan nan nan nan nan nan nan nan nan nan nan nan nan nan nan nan nan nan nan nan nan nan nan nan nan nan nan nan nan nan nan nan nan nan nan nan nan nan nan nan nan
nan nan nan nan nan nan nan nan nan nan nan nan nan nan nan nan nan nan nan nan nan nan nan nan nan nan nan nan nan nan nan nan nan nan nan nan nan nan nan nan nan nan nan nan nan nan nan nan nan nan nan nan nan nan nan nan nan nan nan nan nan nan nan nan nan nan nan nan nan
nan nan nan nan nan nan nan nan nan nan nan nan nan nan nan nan nan nan nan nan nan nan nan nan nan nan nan nan nan nan nan nan nan nan nan nan nan nan nan nan nan nan nan nan nan nan nan nan nan nan nan nan nan nan nan nan nan nan nan nan nan nan nan nan nan nan nan nan nan
nan nan nan nan nan nan nan nan nan nan nan nan nan nan nan nan nan nan nan nan nan nan nan nan nan nan nan nan nan nan nan nan nan nan nan nan nan nan nan nan nan nan nan nan nan nan nan nan nan nan nan nan nan nan nan nan nan nan nan nan nan nan nan nan nan nan nan nan nan
nan nan nan nan nan nan nan nan nan nan nan nan nan nan nan nan nan nan nan nan nan nan nan nan nan nan nan nan nan nan nan nan nan nan nan nan nan nan nan nan nan nan nan nan nan nan nan nan nan nan nan nan nan nan nan nan nan nan nan nan nan nan nan nan nan nan nan nan nan
nan nan nan nan nan nan nan nan nan nan nan nan nan nan nan nan nan nan nan nan nan nan nan nan nan nan nan nan nan nan nan nan nan nan nan nan nan nan nan nan nan nan nan nan nan nan nan nan nan nan nan nan nan nan nan nan nan nan nan nan nan nan nan nan nan nan nan nan nan
nan nan nan nan nan nan nan nan nan nan nan nan nan nan nan nan nan nan nan nan nan nan nan nan nan nan nan nan nan nan nan nan nan nan nan nan nan nan nan nan nan nan nan nan nan nan nan nan nan nan nan nan nan nan nan nan nan nan nan nan nan nan nan nan nan nan nan nan nan
nan nan nan nan nan nan nan nan nan nan nan nan nan nan nan nan nan nan nan nan nan nan nan nan nan nan nan nan nan nan nan nan nan nan nan nan nan nan nan nan nan nan nan nan nan nan nan nan nan nan nan nan nan nan nan nan nan nan nan nan nan nan nan nan nan nan nan nan nan
nan nan nan nan nan nan nan nan nan nan nan nan nan nan nan nan nan nan nan nan nan nan nan nan nan nan nan nan nan nan nan nan nan nan nan nan nan nan nan nan nan nan nan nan nan nan nan nan nan nan nan nan nan nan nan nan nan nan nan nan nan nan nan nan nan nan nan nan nan
nan nan nan nan nan nan nan nan nan nan nan nan nan nan nan nan nan nan nan nan nan nan nan nan nan nan nan nan nan nan nan nan nan nan nan nan nan nan nan nan nan nan nan nan nan nan nan nan nan nan nan nan nan nan nan nan nan nan nan nan nan nan nan nan nan nan nan nan nan
nan nan nan nan nan nan nan nan nan nan nan nan nan nan nan nan nan nan nan nan nan nan nan nan nan nan nan nan nan nan nan nan nan nan nan nan nan nan nan nan nan nan nan nan nan nan nan nan nan nan nan nan nan nan nan nan nan nan nan nan nan nan nan nan nan nan nan nan nan
nan nan nan nan nan nan nan nan nan nan nan nan nan nan nan nan nan nan nan nan nan nan nan nan nan nan nan nan nan nan nan nan nan nan nan nan nan nan nan nan nan nan nan nan nan nan nan nan nan nan nan nan nan nan nan nan nan nan nan nan nan nan nan nan nan nan nan nan nan
nan nan nan nan nan nan nan nan nan nan nan nan nan nan nan nan nan nan nan nan nan nan nan nan nan nan nan nan nan nan nan nan nan nan nan nan nan nan nan nan nan nan nan nan nan nan nan nan nan nan nan nan nan nan nan nan nan nan nan nan nan nan nan nan nan nan nan nan nan
nan nan nan nan nan nan nan nan nan nan nan nan nan nan nan nan nan nan nan nan nan nan nan nan nan nan nan nan nan nan nan nan nan nan nan nan nan nan nan nan nan nan nan nan nan nan nan nan nan nan nan nan nan nan nan nan nan nan nan nan nan nan nan nan nan nan nan nan nan
nan nan nan nan nan nan nan nan nan nan nan nan nan nan nan nan nan nan nan nan nan nan nan nan nan nan nan nan nan nan nan nan nan nan nan nan nan nan nan nan nan nan nan nan nan nan nan nan nan nan nan nan nan nan nan nan nan nan nan nan nan nan nan nan nan nan nan nan nan
nan nan nan nan nan nan nan nan nan nan nan nan nan nan nan nan nan nan nan nan nan nan nan nan nan nan nan nan nan nan nan nan nan nan nan nan nan nan nan nan nan nan nan nan nan nan nan nan nan nan nan nan nan nan nan nan nan nan nan nan nan nan nan nan nan nan nan nan nan
nan nan nan nan nan nan nan nan nan nan nan nan nan nan nan nan nan nan nan nan nan nan nan nan nan nan nan nan nan nan nan nan nan nan nan nan nan nan nan nan nan nan nan nan nan nan nan nan nan nan nan nan nan nan nan nan nan nan nan nan nan nan nan nan nan nan nan nan nan
nan nan nan nan nan nan nan nan nan nan nan nan nan nan nan nan nan nan nan nan nan nan nan nan nan nan nan nan nan nan nan nan nan nan nan nan nan nan nan nan nan nan nan nan nan nan nan nan nan nan nan nan nan nan nan nan nan nan nan nan nan nan nan nan nan nan nan nan nan
nan nan nan nan nan nan nan nan nan nan nan nan nan nan nan nan nan nan nan nan nan nan nan nan nan nan nan nan nan nan nan nan nan nan nan nan nan nan nan nan nan nan nan nan nan nan nan nan nan nan nan nan nan nan nan nan nan nan nan nan nan nan nan nan nan nan nan nan nan
nan nan nan nan nan nan nan nan nan nan nan nan nan nan nan nan nan nan nan nan nan nan nan nan nan nan nan nan nan nan nan nan nan nan nan nan nan nan nan nan nan nan nan nan nan nan nan nan nan nan nan nan nan nan nan nan nan nan nan nan nan nan nan nan nan nan nan nan nan
nan nan nan nan nan nan nan nan nan nan nan nan nan nan nan nan nan nan nan nan nan nan nan nan nan nan nan nan nan nan nan nan nan nan nan nan nan nan nan nan nan nan nan nan nan nan nan nan nan nan nan nan nan nan nan nan nan nan nan nan nan nan nan nan nan nan nan nan nan
nan nan nan nan nan nan nan nan nan nan nan nan nan nan nan nan nan nan nan nan nan nan nan nan nan nan nan nan nan nan nan nan nan nan nan nan nan nan nan nan nan nan nan nan nan nan nan nan nan nan nan nan nan nan nan nan nan nan nan nan nan nan nan nan nan nan nan nan nan
nan nan nan nan nan nan nan nan nan nan nan nan nan nan nan nan nan nan nan nan nan nan nan nan nan nan nan nan nan nan nan nan nan nan nan nan nan nan nan nan nan nan nan nan nan nan nan nan nan nan nan nan nan nan nan nan nan nan nan nan nan nan nan nan nan nan nan nan nan
nan nan nan nan nan nan nan nan nan nan nan nan nan nan nan nan nan nan nan nan nan nan nan nan nan nan nan nan nan nan nan nan nan nan nan nan nan nan nan nan nan nan nan nan nan nan nan nan nan nan nan nan nan nan nan nan nan nan nan nan nan nan nan nan nan nan nan nan nan
nan nan nan nan nan nan nan nan nan nan nan nan nan nan nan nan nan nan nan nan nan nan nan nan nan nan nan nan nan nan nan nan nan nan nan nan nan nan nan nan nan nan nan nan nan nan nan nan nan nan nan nan nan nan nan nan nan nan nan nan nan nan nan nan nan nan nan nan nan
nan nan nan nan nan nan nan nan nan nan nan nan nan nan nan nan nan nan nan nan nan nan nan nan nan nan nan nan nan nan nan nan nan nan nan nan nan nan nan nan nan nan nan nan nan nan nan nan nan nan nan nan nan nan nan nan nan nan nan nan nan nan nan nan nan nan nan nan nan
nan nan nan nan nan nan nan nan nan nan nan nan nan nan nan nan nan nan nan nan nan nan nan nan nan nan nan nan nan nan nan nan nan nan nan nan nan nan nan nan nan nan nan nan nan nan nan nan nan nan nan nan nan nan nan nan nan nan nan nan nan nan nan nan nan nan nan nan nan
nan nan nan nan nan nan nan nan nan nan nan nan nan nan nan nan nan nan nan nan nan nan nan nan nan nan nan nan nan nan nan nan nan nan nan nan nan nan nan nan nan nan nan nan nan nan nan nan nan nan nan nan nan nan nan nan nan nan nan nan nan nan nan nan nan nan nan nan nan
nan nan nan nan nan nan nan nan nan nan nan nan nan nan nan nan nan nan nan nan nan nan nan nan nan nan nan nan nan nan nan nan nan nan nan nan nan nan nan nan nan nan nan nan nan nan nan nan nan nan nan nan nan nan nan nan nan nan nan nan nan nan nan nan nan nan nan nan nan
nan nan nan nan nan nan nan nan nan nan nan nan nan nan nan nan nan nan nan nan nan nan nan nan nan nan nan nan nan nan nan nan nan nan nan nan nan nan nan nan nan nan nan nan nan nan nan nan nan nan nan nan nan nan nan nan nan nan nan nan nan nan nan nan nan nan nan nan nan
nan nan nan nan nan nan nan nan nan nan nan nan nan nan nan nan nan nan nan nan nan nan nan nan nan nan nan nan nan nan nan nan nan nan nan nan nan nan nan nan nan nan nan nan nan nan nan nan nan nan nan nan nan nan nan nan nan nan nan nan nan nan nan nan nan nan nan nan nan
nan nan nan nan nan nan nan nan nan nan nan nan nan nan nan nan nan nan nan nan nan nan nan nan nan nan nan nan nan nan nan nan nan nan nan nan nan nan nan nan nan nan nan nan nan nan nan nan nan nan nan nan nan nan nan nan nan nan nan nan nan nan nan nan nan nan nan nan nan
nan nan nan nan nan nan nan nan nan nan nan nan nan nan nan nan nan nan nan nan nan nan nan nan nan nan nan nan nan nan nan nan nan nan nan nan nan nan nan nan nan nan nan nan nan nan nan nan nan nan nan nan nan nan nan nan nan nan nan nan nan nan nan nan nan nan nan nan nan
nan nan nan nan nan nan nan nan nan nan nan nan nan nan nan nan nan nan nan nan nan nan nan nan nan nan nan nan nan nan nan nan nan nan nan nan nan nan nan nan nan nan nan nan nan nan nan nan nan nan nan nan nan nan nan nan nan nan nan nan nan nan nan nan nan nan nan nan nan
nan nan nan nan nan nan nan nan nan nan nan nan nan nan nan nan nan nan nan nan nan nan nan nan nan nan nan nan nan nan nan nan nan nan nan nan nan nan nan nan nan nan nan nan nan nan nan nan nan nan nan nan nan nan nan nan nan nan nan nan nan nan nan nan nan nan nan nan nan
nan nan nan nan nan nan nan nan nan nan nan nan nan nan nan nan nan nan nan nan nan nan nan nan nan nan nan nan nan nan nan nan nan nan nan nan nan nan nan nan nan nan nan nan nan nan nan nan nan nan nan nan nan nan nan nan nan nan nan nan nan nan nan nan nan nan nan nan nan
nan nan nan nan nan nan nan nan nan nan nan nan nan nan nan nan nan nan nan nan nan nan nan nan nan nan nan nan nan nan nan nan nan nan nan nan nan nan nan nan nan nan nan nan nan nan nan nan nan nan nan nan nan nan nan nan nan nan nan nan nan nan nan nan nan nan nan nan nan
nan nan nan nan nan nan nan nan nan nan nan nan nan nan nan nan nan nan nan nan nan nan nan nan nan nan nan nan nan nan nan nan nan nan nan nan nan nan nan nan nan nan nan nan nan nan nan nan nan nan nan nan nan nan nan nan nan nan nan nan nan nan nan nan nan nan nan nan nan